Location: Forst
(46.9333°N, 15.4333°E)
Time: 13:58:48
(UTC+00:00)

Cosmos 2369 Rocket - Pass Details

Date: 01 December 2020
Orbit: 829 x 852 km, 71.0° (Epoch: 27 January)

Event Time Altitude Azimuth Distance (km) Brightness Sun altitude
Rises 17:51:45 0° 325° (NW) 3,420 5.8 -26.6°
Reaches altitude 10° 17:54:28 10° 315° (NW) 2,477 5.1 -27.1°
Maximum altitude 17:59:19 30° 256° (WSW) 1,475 4.0 -27.9°
Drops below altitude 10° 18:04:08 10° 197° (SSW) 2,449 4.8 -28.7°
Sets 18:06:49 0° 187° (S) 3,375 5.4 -29.2°
